Hourly Data Report for May 06, 2021

WESTERN HEAD
NOVA SCOTIA
Current Station Operator: ECCC - MSC

43°59'24.070" N
64°39'51.008" W
10.10 m
8206240
71411
WWE

Download Data

Hourly Data (May 2021)
Hourly Data Report for May 6, 2021
TIME
LST
Temp Definition
°C
Dew Point Definition
°C
Rel Hum Definition
%
Precip. Amount Definition
mm

Wind Dir Definition
10's deg

Wind Spd Definition
km/h
Visibility Definition
km
Stn Press Definition
kPa
Hmdx Definition


Wind Chill Definition


Weather Definition


00:00 4.9 4.9 100 7.6 6 23   100.23     LegendNANA
01:00 5.0 5.0 100 2.9 5 19   100.04     LegendNANA
02:00 5.2 5.2 100 3.4 6 22   99.94     LegendNANA
03:00 5.2 LegendMM LegendMM 1.2 4 17   99.81     LegendNANA
04:00 5.2 LegendMM LegendMM 0.6 3 15   99.76     LegendNANA
05:00 5.2 LegendMM LegendMM 0.5 3 13   99.65     LegendNANA
06:00 5.4 LegendMM LegendMM 0.2 36 11   99.68     LegendNANA
07:00 6.0 LegendMM LegendMM 0.0 35 11   99.70     LegendNANA
08:00 6.8 LegendMM LegendMM 0.0 31 12   99.79     LegendNANA
09:00 7.5 LegendMM LegendMM 0.0 31 11   99.83     LegendNANA
10:00 8.6 LegendMM LegendMM 0.0 29 15   99.89     LegendNANA
11:00 9.3 8.6 96 0.0 27 16   99.97     LegendNANA
12:00 9.6 6.7 82 0.0 30 23   100.01     LegendNANA
13:00 9.9 5.8 76 0.0 29 24   100.08     LegendNANA
14:00 9.8 5.3 74 0.0 29 25   100.20     LegendNANA
15:00 10.3 5.5 72 0.0 30 20   100.23     LegendNANA
16:00 9.9 5.2 73 0.0 30 20   100.29     LegendNANA
17:00 10.2 5.2 71 0.0 30 19   100.37     LegendNANA
18:00 9.7 4.7 71 0.0 29 21   100.46     LegendNANA
19:00 9.3 4.5 72 0.0 30 14   100.57     LegendNANA
20:00 8.3 4.3 76 0.0 31 14   100.67     LegendNANA
21:00 6.3 3.7 84 0.0 27 7   100.87     LegendNANA
22:00 3.2 2.5 95 0.0 24 8   100.89     LegendNANA
23:00 3.7 3.2 97 0.0 26 10   100.98     LegendNANA

Notes on Data Quality.

Legend

  • E = Estimated
  • M = Missing
  • NA = Not Available*
  • [empty] = Indicates an unobserved value
Date modified: